| time (UTC) | temp C | wind direction | speed KPH | gust KPH | rain 1hr cm | rain 24hr cm | rain mn cm | humidity % | barometer mb |
| 20260507193606 | 32 | 288 | 3.2 | 4.8 | 0.00 | 0.00 | 0.00 | 15 | 1011.7 |
| 20260507193103 | 33 | 10 | 1.6 | 1.6 | 0.00 | 0.00 | 0.00 | 15 | 1012.0 |
| 20260507192559 | 33 | 6 | 1.6 | 1.6 | 0.00 | 0.00 | 0.00 | 15 | 1012.0 |
| 20260507192057 | 32 | 25 | 0.0 | 1.6 | 0.00 | 0.00 | 0.00 | 16 | 1012.2 |
| 20260507191552 | 32 | 20 | 1.6 | 1.6 | 0.00 | 0.00 | 0.00 | 18 | 1012.1 |
| 20260507191049 | 33 | 90 | 3.2 | 3.2 | 0.00 | 0.00 | 0.00 | 15 | 1012.4 |
| 20260507190546 | 32 | 30 | 0.0 | 0.0 | 0.00 | 0.00 | 0.00 | 16 | 1012.3 |
| 20260507190045 | 32 | 28 | 1.6 | 1.6 | 0.00 | 0.00 | 0.00 | 16 | 1012.6 |
| 20260507185543 | 32 | 56 | 1.6 | 1.6 | 0.00 | 0.00 | 0.00 | 16 | 1012.5 |
| 20260507185039 | 32 | 337 | 0.0 | 1.6 | 0.00 | 0.00 | 0.00 | 16 | 1012.6 |
| 20260507184538 | 32 | 340 | 3.2 | 3.2 | 0.00 | 0.00 | 0.00 | 16 | 1012.8 |
| 20260507184035 | 32 | 19 | 1.6 | 1.6 | 0.00 | 0.00 | 0.00 | 18 | 1012.7 |
| 20260507183530 | 31 | 357 | 1.6 | 1.6 | 0.00 | 0.00 | 0.00 | 18 | 1012.8 |
| 20260507183028 | 31 | 19 | 1.6 | 1.6 | 0.00 | 0.00 | 0.00 | 17 | 1012.8 |
| 20260507182524 | 31 | 318 | 3.2 | 3.2 | 0.00 | 0.00 | 0.00 | 18 | 1013.0 |
| 20260507182020 | 30 | 169 | 3.2 | 4.8 | 0.00 | 0.00 | 0.00 | 17 | 1012.9 |
| 20260507181518 | 30 | 342 | 3.2 | 3.2 | 0.00 | 0.00 | 0.00 | 18 | 1012.9 |
| 20260507181013 | 30 | 65 | 1.6 | 1.6 | 0.00 | 0.00 | 0.00 | 17 | 1013.0 |
| 20260507180510 | 31 | 101 | 3.2 | 3.2 | 0.00 | 0.00 | 0.00 | 17 | 1013.2 |
| 20260507180007 | 30 | 65 | 1.6 | 1.6 | 0.00 | 0.00 | 0.00 | 18 | 1013.0 |
| 20260507175503 | 30 | 180 | 4.8 | 6.4 | 0.00 | 0.00 | 0.00 | 18 | 1013.2 |
| 20260507175000 | 30 | 32 | 0.0 | 1.6 | 0.00 | 0.00 | 0.00 | 18 | 1013.2 |
| 20260507174458 | 30 | 43 | 0.0 | 0.0 | 0.00 | 0.00 | 0.00 | 19 | 1013.4 |
| 20260507173955 | 30 | 88 | 1.6 | 3.2 | 0.00 | 0.00 | 0.00 | 19 | 1013.5 |
| 20260507173452 | 30 | 14 | 1.6 | 1.6 | 0.00 | 0.00 | 0.00 | 20 | 1013.6 |
| 20260507172949 | 30 | 58 | 0.0 | 0.0 | 0.00 | 0.00 | 0.00 | 20 | 1013.5 |
| 20260507172445 | 29 | 346 | 3.2 | 3.2 | 0.00 | 0.00 | 0.00 | 20 | 1013.6 |
| 20260507171942 | 29 | 36 | 0.0 | 1.6 | 0.00 | 0.00 | 0.00 | 23 | 1013.5 |
| 20260507171438 | 28 | 30 | 0.0 | 0.0 | 0.00 | 0.00 | 0.00 | 21 | 1013.5 |
| 20260507170936 | 28 | 42 | 0.0 | 1.6 | 0.00 | 0.00 | 0.00 | 21 | 1013.6 |
| 20260507170432 | 28 | 279 | 1.6 | 1.6 | 0.00 | 0.00 | 0.00 | 22 | 1013.8 |
| 20260507165928 | 29 | 56 | 1.6 | 1.6 | 0.00 | 0.00 | 0.00 | 22 | 1013.7 |
| 20260507165424 | 28 | 35 | 0.0 | 1.6 | 0.00 | 0.00 | 0.00 | 25 | 1013.6 |
| 20260507164920 | 28 | 82 | 1.6 | 1.6 | 0.00 | 0.00 | 0.00 | 23 | 1013.7 |
| 20260507164417 | 28 | 351 | 3.2 | 3.2 | 0.00 | 0.00 | 0.00 | 24 | 1013.8 |
| 20260507163914 | 27 | 11 | 3.2 | 3.2 | 0.00 | 0.00 | 0.00 | 27 | 1013.8 |
| 20260507163412 | 28 | 39 | 0.0 | 0.0 | 0.00 | 0.00 | 0.00 | 28 | 1013.8 |
| 20260507162908 | 27 | 40 | 0.0 | 0.0 | 0.00 | 0.00 | 0.00 | 27 | 1013.8 |
| 20260507162403 | 26 | 42 | 0.0 | 0.0 | 0.00 | 0.00 | 0.00 | 28 | 1014.1 |
| 20260507161901 | 26 | 21 | 1.6 | 1.6 | 0.00 | 0.00 | 0.00 | 28 | 1013.9 |
| 20260507161357 | 27 | 38 | 0.0 | 1.6 | 0.00 | 0.00 | 0.00 | 30 | 1014.0 |
| 20260507160854 | 27 | 38 | 0.0 | 0.0 | 0.00 | 0.00 | 0.00 | 28 | 1014.2 |
| 20260507160349 | 27 | 49 | 0.0 | 1.6 | 0.00 | 0.00 | 0.00 | 27 | 1014.1 |
| 20260507155846 | 26 | 40 | 0.0 | 0.0 | 0.00 | 0.00 | 0.00 | 30 | 1014.2 |
| 20260507155342 | 27 | 17 | 0.0 | 1.6 | 0.00 | 0.00 | 0.00 | 28 | 1014.1 |
| 20260507154839 | 26 | 44 | 0.0 | 0.0 | 0.00 | 0.00 | 0.00 | 29 | 1014.1 |
| 20260507154336 | 25 | 39 | 0.0 | 0.0 | 0.00 | 0.00 | 0.00 | 30 | 1014.1 |
| 20260507153833 | 25 | 75 | 1.6 | 1.6 | 0.00 | 0.00 | 0.00 | 30 | 1014.1 |
| 20260507153330 | 25 | 45 | 1.6 | 1.6 | 0.00 | 0.00 | 0.00 | 31 | 1014.3 |
| 20260507152826 | 24 | 114 | 0.0 | 1.6 | 0.00 | 0.00 | 0.00 | 31 | 1014.1 |
| 20260507152323 | 23 | 62 | 1.6 | 1.6 | 0.00 | 0.00 | 0.00 | 32 | 1014.1 |
| 20260507151819 | 23 | 39 | 0.0 | 0.0 | 0.00 | 0.00 | 0.00 | 32 | 1014.1 |
| 20260507151315 | 23 | 37 | 0.0 | 1.6 | 0.00 | 0.00 | 0.00 | 32 | 1014.2 |
| 20260507150812 | 23 | 41 | 0.0 | 0.0 | 0.00 | 0.00 | 0.00 | 31 | 1014.2 |
| 20260507150309 | 23 | 44 | 0.0 | 0.0 | 0.00 | 0.00 | 0.00 | 32 | 1014.1 |
| 20260507145805 | 22 | 42 | 0.0 | 1.6 | 0.00 | 0.00 | 0.00 | 33 | 1014.2 |
| 20260507145301 | 22 | 105 | 3.2 | 3.2 | 0.00 | 0.00 | 0.00 | 34 | 1014.1 |
| 20260507144759 | 21 | 60 | 1.6 | 1.6 | 0.00 | 0.00 | 0.00 | 34 | 1014.1 |
| 20260507144256 | 21 | 75 | 1.6 | 1.6 | 0.00 | 0.00 | 0.00 | 36 | 1014.2 |
| 20260507143752 | 21 | 60 | 3.2 | 3.2 | 0.00 | 0.00 | 0.00 | 36 | 1014.3 |
| 20260507143250 | 20 | 58 | 0.0 | 1.6 | 0.00 | 0.00 | 0.00 | 37 | 1014.3 |
| 20260507142745 | 20 | 57 | 1.6 | 3.2 | 0.00 | 0.00 | 0.00 | 39 | 1014.1 |
| 20260507142242 | 20 | 57 | 1.6 | 1.6 | 0.00 | 0.00 | 0.00 | 39 | 1014.1 |
| 20260507141739 | 20 | 49 | 1.6 | 3.2 | 0.00 | 0.00 | 0.00 | 40 | 1014.2 |
| 20260507141236 | 20 | 91 | 1.6 | 3.2 | 0.00 | 0.00 | 0.00 | 40 | 1014.3 |
| 20260507140732 | 20 | 53 | 1.6 | 1.6 | 0.00 | 0.00 | 0.00 | 42 | 1014.2 |
| 20260507140230 | 19 | 49 | 0.0 | 0.0 | 0.00 | 0.00 | 0.00 | 43 | 1014.2 |
| 20260507135726 | 19 | 58 | 1.6 | 1.6 | 0.00 | 0.00 | 0.00 | 44 | 1014.1 |
| 20260507135224 | 18 | 43 | 0.0 | 1.6 | 0.00 | 0.00 | 0.00 | 47 | 1014.0 |
| 20260507134720 | 18 | 54 | 1.6 | 1.6 | 0.00 | 0.00 | 0.00 | 47 | 1014.0 |
| 20260507134216 | 17 | 85 | 1.6 | 1.6 | 0.00 | 0.00 | 0.00 | 49 | 1013.9 |
| 20260507133712 | 16 | 63 | 1.6 | 1.6 | 0.00 | 0.00 | 0.00 | 51 | 1013.8 |
| 20260507133209 | 16 | 36 | 0.0 | 0.0 | 0.00 | 0.00 | 0.00 | 52 | 1013.7 |
| 20260507132707 | 15 | 32 | 0.0 | 0.0 | 0.00 | 0.00 | 0.00 | 55 | 1013.4 |
| 20260507132203 | 15 | 31 | 0.0 | 0.0 | 0.00 | 0.00 | 0.00 | 53 | 1013.5 |
| 20260507131700 | 15 | 34 | 0.0 | 0.0 | 0.00 | 0.00 | 0.00 | 53 | 1013.4 |
| 20260507131158 | 15 | 26 | 0.0 | 0.0 | 0.00 | 0.00 | 0.00 | 55 | 1013.4 |
| 20260507130654 | 15 | 25 | 0.0 | 0.0 | 0.00 | 0.00 | 0.00 | 55 | 1013.5 |
| 20260507130152 | 15 | 24 | 0.0 | 0.0 | 0.00 | 0.00 | 0.00 | 55 | 1013.3 |
| 20260507125650 | 15 | 38 | 0.0 | 0.0 | 0.00 | 0.00 | 0.00 | 56 | 1013.3 |
| 20260507125148 | 15 | 26 | 0.0 | 0.0 | 0.00 | 0.00 | 0.00 | 56 | 1013.4 |
| 20260507124643 | 15 | 25 | 0.0 | 0.0 | 0.00 | 0.00 | 0.00 | 55 | 1013.3 |
| 20260507124141 | 15 | 22 | 0.0 | 0.0 | 0.00 | 0.00 | 0.00 | 56 | 1013.3 |
| 20260507123639 | 15 | 37 | 0.0 | 0.0 | 0.00 | 0.00 | 0.00 | 55 | 1013.5 |
| 20260507123136 | 15 | 39 | 0.0 | 0.0 | 0.00 | 0.00 | 0.00 | 56 | 1013.5 |
| 20260507122631 | 15 | 38 | 0.0 | 0.0 | 0.00 | 0.00 | 0.00 | 54 | 1013.5 |
| 20260507122127 | 15 | 69 | 1.6 | 1.6 | 0.00 | 0.00 | 0.00 | 53 | 1013.5 |
| 20260507121624 | 15 | 80 | 1.6 | 3.2 | 0.00 | 0.00 | 0.00 | 53 | 1013.3 |
| 20260507121120 | 15 | 27 | 0.0 | 0.0 | 0.00 | 0.00 | 0.00 | 53 | 1013.4 |
| 20260507120616 | 15 | 26 | 0.0 | 0.0 | 0.00 | 0.00 | 0.00 | 52 | 1013.0 |
| 20260507120113 | 15 | 22 | 0.0 | 0.0 | 0.00 | 0.00 | 0.00 | 54 | 1013.3 |
| 20260507115609 | 15 | 27 | 0.0 | 0.0 | 0.00 | 0.00 | 0.00 | 53 | 1013.2 |
| 20260507115105 | 15 | 22 | 0.0 | 0.0 | 0.00 | 0.00 | 0.00 | 53 | 1013.2 |
| 20260507114601 | 15 | 24 | 0.0 | 0.0 | 0.00 | 0.00 | 0.00 | 53 | 1013.2 |
| 20260507114058 | 15 | 23 | 0.0 | 0.0 | 0.00 | 0.00 | 0.00 | 53 | 1013.2 |
| 20260507113555 | 15 | 21 | 0.0 | 0.0 | 0.00 | 0.00 | 0.00 | 54 | 1013.3 |
| 20260507113052 | 15 | 18 | 0.0 | 0.0 | 0.00 | 0.00 | 0.00 | 54 | 1013.3 |
| 20260507112550 | 15 | 27 | 0.0 | 0.0 | 0.00 | 0.00 | 0.00 | 56 | 1013.6 |
| 20260507112047 | 15 | 27 | 0.0 | 0.0 | 0.00 | 0.00 | 0.00 | 55 | 1013.4 |
| 20260507111544 | 15 | 51 | 0.0 | 0.0 | 0.00 | 0.00 | 0.00 | 57 | 1013.3 |
| 20260507111041 | 15 | 46 | 0.0 | 0.0 | 0.00 | 0.00 | 0.00 | 56 | 1013.3 |
| 20260507110537 | 15 | 36 | 0.0 | 0.0 | 0.00 | 0.00 | 0.00 | 57 | 1013.3 |
| 20260507110033 | 15 | 40 | 0.0 | 0.0 | 0.00 | 0.00 | 0.00 | 58 | 1013.2 |
| 20260507105531 | 15 | 36 | 0.0 | 0.0 | 0.00 | 0.00 | 0.00 | 59 | 1013.2 |
| 20260507105026 | 15 | 31 | 0.0 | 0.0 | 0.00 | 0.00 | 0.00 | 58 | 1013.4 |
| 20260507104524 | 15 | 33 | 0.0 | 0.0 | 0.00 | 0.00 | 0.00 | 58 | 1013.4 |
| 20260507104020 | 15 | 34 | 0.0 | 0.0 | 0.00 | 0.00 | 0.00 | 57 | 1013.4 |
| 20260507103517 | 16 | 34 | 0.0 | 0.0 | 0.00 | 0.00 | 0.00 | 56 | 1013.5 |
| 20260507103013 | 16 | 40 | 0.0 | 0.0 | 0.00 | 0.00 | 0.00 | 55 | 1013.5 |
| 20260507102510 | 16 | 41 | 0.0 | 0.0 | 0.00 | 0.00 | 0.00 | 54 | 1013.5 |
| 20260507102007 | 16 | 39 | 0.0 | 0.0 | 0.00 | 0.00 | 0.00 | 54 | 1013.5 |
| 20260507101501 | 16 | 40 | 0.0 | 0.0 | 0.00 | 0.00 | 0.00 | 54 | 1013.6 |
| 20260507100958 | 16 | 34 | 0.0 | 0.0 | 0.00 | 0.00 | 0.00 | 55 | 1013.6 |
| 20260507100455 | 16 | 35 | 0.0 | 0.0 | 0.00 | 0.00 | 0.00 | 54 | 1013.8 |
| 20260507095954 | 16 | 53 | 0.0 | 0.0 | 0.00 | 0.00 | 0.00 | 55 | 1013.6 |
| 20260507095451 | 15 | 35 | 0.0 | 0.0 | 0.00 | 0.00 | 0.00 | 55 | 1013.6 |
| 20260507094948 | 16 | 29 | 0.0 | 0.0 | 0.00 | 0.00 | 0.00 | 55 | 1013.7 |
| 20260507094444 | 16 | 29 | 0.0 | 0.0 | 0.00 | 0.00 | 0.00 | 54 | 1013.8 |
| 20260507093941 | 16 | 33 | 0.0 | 0.0 | 0.00 | 0.00 | 0.00 | 54 | 1013.8 |
| 20260507093439 | 16 | 29 | 0.0 | 0.0 | 0.00 | 0.00 | 0.00 | 54 | 1013.9 |
| 20260507092937 | 16 | 28 | 0.0 | 0.0 | 0.00 | 0.00 | 0.00 | 53 | 1014.0 |
| 20260507092433 | 16 | 32 | 0.0 | 0.0 | 0.00 | 0.00 | 0.00 | 54 | 1013.8 |
| 20260507091930 | 16 | 29 | 0.0 | 0.0 | 0.00 | 0.00 | 0.00 | 51 | 1013.9 |
| 20260507091426 | 17 | 30 | 0.0 | 0.0 | 0.00 | 0.00 | 0.00 | 51 | 1014.0 |
| 20260507090922 | 17 | 38 | 0.0 | 0.0 | 0.00 | 0.00 | 0.00 | 48 | 1014.0 |
| 20260507090418 | 17 | 44 | 0.0 | 0.0 | 0.00 | 0.00 | 0.00 | 47 | 1014.0 |
| 20260507085915 | 17 | 39 | 0.0 | 0.0 | 0.00 | 0.00 | 0.00 | 47 | 1014.1 |
| 20260507085412 | 17 | 42 | 0.0 | 0.0 | 0.00 | 0.00 | 0.00 | 46 | 1014.2 |
| 20260507084909 | 17 | 38 | 0.0 | 0.0 | 0.00 | 0.00 | 0.00 | 47 | 1014.3 |
| 20260507084406 | 17 | 36 | 0.0 | 0.0 | 0.00 | 0.00 | 0.00 | 46 | 1014.3 |
| 20260507083903 | 17 | 36 | 0.0 | 0.0 | 0.00 | 0.00 | 0.00 | 46 | 1014.2 |
| 20260507083359 | 17 | 50 | 0.0 | 1.6 | 0.00 | 0.00 | 0.00 | 46 | 1014.1 |
| 20260507082855 | 17 | 41 | 0.0 | 0.0 | 0.00 | 0.00 | 0.00 | 47 | 1014.3 |
| 20260507082351 | 17 | 34 | 0.0 | 0.0 | 0.00 | 0.00 | 0.00 | 48 | 1014.3 |
| 20260507081849 | 17 | 38 | 0.0 | 0.0 | 0.00 | 0.00 | 0.00 | 47 | 1014.1 |
| 20260507081345 | 17 | 32 | 0.0 | 0.0 | 0.00 | 0.00 | 0.00 | 48 | 1014.2 |
| 20260507080842 | 18 | 32 | 0.0 | 0.0 | 0.00 | 0.00 | 0.00 | 47 | 1014.1 |
| 20260507080338 | 18 | 37 | 0.0 | 0.0 | 0.00 | 0.00 | 0.00 | 46 | 1014.3 |
| 20260507075833 | 18 | 38 | 0.0 | 0.0 | 0.00 | 0.00 | 0.00 | 46 | 1014.3 |
| 20260507075329 | 17 | 40 | 0.0 | 0.0 | 0.00 | 0.00 | 0.00 | 46 | 1014.2 |
| 20260507074826 | 18 | 31 | 0.0 | 0.0 | 0.00 | 0.00 | 0.00 | 46 | 1014.3 |
| 20260507074324 | 17 | 26 | 0.0 | 0.0 | 0.00 | 0.00 | 0.00 | 47 | 1014.4 |
| 20260507073821 | 18 | 25 | 0.0 | 0.0 | 0.00 | 0.00 | 0.00 | 47 | 1014.5 |
| 20260507073317 | 18 | 23 | 0.0 | 0.0 | 0.00 | 0.00 | 0.00 | 46 | 1014.2 |
| 20260507072815 | 17 | 29 | 0.0 | 0.0 | 0.00 | 0.00 | 0.00 | 47 | 1014.3 |
| 20260507072312 | 17 | 33 | 0.0 | 0.0 | 0.00 | 0.00 | 0.00 | 47 | 1014.2 |
| 20260507071809 | 18 | 34 | 0.0 | 0.0 | 0.00 | 0.00 | 0.00 | 47 | 1014.3 |
| 20260507071306 | 18 | 36 | 0.0 | 0.0 | 0.00 | 0.00 | 0.00 | 45 | 1014.2 |
| 20260507070802 | 18 | 36 | 0.0 | 0.0 | 0.00 | 0.00 | 0.00 | 44 | 1014.5 |
| 20260507070300 | 18 | 41 | 0.0 | 0.0 | 0.00 | 0.00 | 0.00 | 43 | 1014.5 |
| 20260507065756 | 18 | 37 | 0.0 | 0.0 | 0.00 | 0.00 | 0.00 | 44 | 1014.3 |
| 20260507065253 | 18 | 33 | 0.0 | 0.0 | 0.00 | 0.00 | 0.00 | 44 | 1014.4 |
| 20260507064750 | 18 | 34 | 0.0 | 0.0 | 0.00 | 0.00 | 0.00 | 44 | 1014.4 |
| 20260507064249 | 19 | 33 | 0.0 | 0.0 | 0.00 | 0.00 | 0.00 | 43 | 1014.3 |
| 20260507063746 | 19 | 31 | 0.0 | 0.0 | 0.00 | 0.00 | 0.00 | 41 | 1014.5 |
| 20260507063243 | 18 | 35 | 0.0 | 0.0 | 0.00 | 0.00 | 0.00 | 41 | 1014.2 |
| 20260507062740 | 18 | 33 | 0.0 | 0.0 | 0.00 | 0.00 | 0.00 | 41 | 1014.3 |
| 20260507062237 | 18 | 34 | 0.0 | 0.0 | 0.00 | 0.00 | 0.00 | 44 | 1014.3 |
| 20260507061735 | 19 | 34 | 0.0 | 0.0 | 0.00 | 0.00 | 0.00 | 41 | 1014.3 |
| 20260507061232 | 20 | 36 | 0.0 | 0.0 | 0.00 | 0.00 | 0.00 | 40 | 1014.2 |
| 20260507060731 | 20 | 38 | 0.0 | 0.0 | 0.00 | 0.00 | 0.00 | 40 | 1014.4 |
| 20260507060227 | 20 | 37 | 0.0 | 0.0 | 0.00 | 0.00 | 0.00 | 41 | 1014.3 |
| 20260507055723 | 19 | 33 | 0.0 | 0.0 | 0.00 | 0.00 | 0.00 | 40 | 1014.2 |
| 20260507055219 | 20 | 34 | 0.0 | 0.0 | 0.00 | 0.00 | 0.00 | 40 | 1014.1 |
| 20260507054715 | 20 | 37 | 0.0 | 0.0 | 0.00 | 0.00 | 0.00 | 41 | 1014.3 |
| 20260507054212 | 20 | 33 | 0.0 | 0.0 | 0.00 | 0.00 | 0.00 | 40 | 1014.3 |
| 20260507053710 | 20 | 33 | 0.0 | 0.0 | 0.00 | 0.00 | 0.00 | 40 | 1014.1 |
| 20260507053207 | 20 | 33 | 0.0 | 0.0 | 0.00 | 0.00 | 0.00 | 39 | 1014.1 |
| 20260507052706 | 20 | 33 | 0.0 | 0.0 | 0.00 | 0.00 | 0.00 | 39 | 1014.3 |
| 20260507052202 | 20 | 33 | 0.0 | 0.0 | 0.00 | 0.00 | 0.00 | 41 | 1014.2 |
| 20260507051700 | 20 | 34 | 0.0 | 0.0 | 0.00 | 0.00 | 0.00 | 39 | 1014.2 |
| 20260507051156 | 21 | 34 | 0.0 | 0.0 | 0.00 | 0.00 | 0.00 | 39 | 1014.1 |
| 20260507050653 | 21 | 34 | 0.0 | 0.0 | 0.00 | 0.00 | 0.00 | 38 | 1014.1 |
| 20260507050150 | 21 | 33 | 0.0 | 0.0 | 0.00 | 0.00 | 0.00 | 38 | 1014.0 |
| 20260507045647 | 20 | 33 | 0.0 | 0.0 | 0.00 | 0.00 | 0.00 | 37 | 1014.1 |
| 20260507045143 | 21 | 34 | 0.0 | 0.0 | 0.00 | 0.00 | 0.00 | 36 | 1014.0 |
| 20260507044640 | 21 | 38 | 0.0 | 0.0 | 0.00 | 0.00 | 0.00 | 36 | 1014.0 |
| 20260507044137 | 21 | 44 | 0.0 | 0.0 | 0.00 | 0.00 | 0.00 | 37 | 1013.9 |
| 20260507043633 | 21 | 32 | 0.0 | 0.0 | 0.00 | 0.00 | 0.00 | 39 | 1013.9 |
| 20260507043130 | 21 | 32 | 0.0 | 0.0 | 0.00 | 0.00 | 0.00 | 35 | 1013.9 |
| 20260507042626 | 22 | 34 | 0.0 | 0.0 | 0.00 | 0.00 | 0.00 | 34 | 1013.9 |
| 20260507042121 | 22 | 44 | 0.0 | 0.0 | 0.00 | 0.00 | 0.00 | 33 | 1014.0 |
| 20260507041618 | 22 | 36 | 0.0 | 0.0 | 0.00 | 0.00 | 0.00 | 34 | 1013.9 |
| 20260507041115 | 22 | 36 | 0.0 | 0.0 | 0.00 | 0.00 | 0.00 | 35 | 1013.8 |
| 20260507040612 | 22 | 37 | 0.0 | 0.0 | 0.00 | 0.00 | 0.00 | 33 | 1013.8 |
| 20260507040109 | 22 | 38 | 0.0 | 0.0 | 0.00 | 0.00 | 0.00 | 32 | 1013.7 |
| 20260507035605 | 22 | 32 | 0.0 | 0.0 | 0.00 | 0.00 | 0.00 | 31 | 1013.8 |
| 20260507035101 | 22 | 32 | 0.0 | 0.0 | 0.00 | 0.00 | 0.00 | 30 | 1013.5 |
| 20260507034558 | 23 | 32 | 0.0 | 0.0 | 0.00 | 0.00 | 0.00 | 30 | 1013.5 |
| 20260507034056 | 23 | 29 | 0.0 | 0.0 | 0.00 | 0.00 | 0.00 | 29 | 1013.6 |
| 20260507033554 | 23 | 32 | 0.0 | 0.0 | 0.00 | 0.00 | 0.00 | 30 | 1013.3 |
| 20260507033050 | 23 | 36 | 0.0 | 0.0 | 0.00 | 0.00 | 0.00 | 30 | 1013.4 |
| 20260507032547 | 23 | 42 | 0.0 | 0.0 | 0.00 | 0.00 | 0.00 | 29 | 1013.4 |
| 20260507032044 | 23 | 27 | 0.0 | 0.0 | 0.00 | 0.00 | 0.00 | 29 | 1013.0 |
| 20260507031540 | 23 | 32 | 0.0 | 0.0 | 0.00 | 0.00 | 0.00 | 29 | 1013.2 |
| 20260507031038 | 24 | 30 | 0.0 | 0.0 | 0.00 | 0.00 | 0.00 | 28 | 1013.0 |
| 20260507030534 | 24 | 6 | 0.0 | 0.0 | 0.00 | 0.00 | 0.00 | 28 | 1013.0 |
| 20260507030032 | 25 | 26 | 0.0 | 0.0 | 0.00 | 0.00 | 0.00 | 27 | 1013.0 |
| 20260507025528 | 25 | 6 | 0.0 | 1.6 | 0.00 | 0.00 | 0.00 | 27 | 1013.0 |
| 20260507025026 | 25 | 20 | 0.0 | 0.0 | 0.00 | 0.00 | 0.00 | 27 | 1013.0 |
| 20260507024524 | 25 | 36 | 0.0 | 0.0 | 0.00 | 0.00 | 0.00 | 26 | 1012.8 |
| 20260507024020 | 25 | 303 | 1.6 | 3.2 | 0.00 | 0.00 | 0.00 | 26 | 1012.7 |
| 20260507023516 | 25 | 7 | 0.0 | 1.6 | 0.00 | 0.00 | 0.00 | 25 | 1012.8 |
| 20260507023014 | 26 | 14 | 1.6 | 1.6 | 0.00 | 0.00 | 0.00 | 25 | 1012.7 |
| 20260507022511 | 26 | 344 | 0.0 | 1.6 | 0.00 | 0.00 | 0.00 | 25 | 1012.7 |
| 20260507022006 | 26 | 320 | 1.6 | 1.6 | 0.00 | 0.00 | 0.00 | 25 | 1012.6 |
| 20260507021502 | 26 | 28 | 0.0 | 0.0 | 0.00 | 0.00 | 0.00 | 25 | 1012.5 |
| 20260507020959 | 26 | 336 | 1.6 | 1.6 | 0.00 | 0.00 | 0.00 | 24 | 1012.5 |
| 20260507020456 | 26 | 261 | 1.6 | 3.2 | 0.00 | 0.00 | 0.00 | 24 | 1012.4 |
| 20260507015953 | 26 | 3 | 1.6 | 1.6 | 0.00 | 0.00 | 0.00 | 24 | 1012.4 |
| 20260507015451 | 26 | 336 | 0.0 | 1.6 | 0.00 | 0.00 | 0.00 | 24 | 1012.4 |
| 20260507014948 | 27 | 27 | 0.0 | 0.0 | 0.00 | 0.00 | 0.00 | 24 | 1012.3 |
| 20260507014444 | 27 | 16 | 0.0 | 1.6 | 0.00 | 0.00 | 0.00 | 24 | 1012.4 |
| 20260507013940 | 27 | 319 | 3.2 | 4.8 | 0.00 | 0.00 | 0.00 | 24 | 1012.4 |
| 20260507013438 | 27 | 314 | 3.2 | 3.2 | 0.00 | 0.00 | 0.00 | 23 | 1012.5 |
| 20260507012935 | 27 | 22 | 0.0 | 1.6 | 0.00 | 0.00 | 0.00 | 23 | 1012.4 |
| 20260507012432 | 27 | 15 | 0.0 | 0.0 | 0.00 | 0.00 | 0.00 | 24 | 1012.5 |
| 20260507011928 | 27 | 7 | 1.6 | 3.2 | 0.00 | 0.00 | 0.00 | 24 | 1012.4 |
| 20260507011426 | 27 | 313 | 1.6 | 1.6 | 0.00 | 0.00 | 0.00 | 23 | 1012.4 |
| 20260507010925 | 27 | 271 | 1.6 | 3.2 | 0.00 | 0.00 | 0.00 | 23 | 1012.4 |
| 20260507010421 | 28 | 272 | 6.4 | 6.4 | 0.00 | 0.00 | 0.00 | 23 | 1012.3 |
| 20260507005918 | 29 | 28 | 1.6 | 3.2 | 0.00 | 0.00 | 0.00 | 22 | 1012.3 |
| 20260507005415 | 29 | 345 | 1.6 | 1.6 | 0.00 | 0.00 | 0.00 | 22 | 1012.6 |
| 20260507004911 | 29 | 52 | 1.6 | 1.6 | 0.00 | 0.00 | 0.00 | 22 | 1012.4 |
| 20260507004408 | 29 | 25 | 0.0 | 0.0 | 0.00 | 0.00 | 0.00 | 21 | 1012.4 |
| 20260507003906 | 30 | 7 | 1.6 | 3.2 | 0.00 | 0.00 | 0.00 | 22 | 1012.4 |
| 20260507003401 | 30 | 325 | 1.6 | 3.2 | 0.00 | 0.00 | 0.00 | 21 | 1012.5 |
| 20260507002856 | 29 | 46 | 0.0 | 0.0 | 0.00 | 0.00 | 0.00 | 22 | 1012.3 |
| 20260507002353 | 28 | 1 | 1.6 | 3.2 | 0.00 | 0.00 | 0.00 | 22 | 1012.4 |
| 20260507001850 | 28 | 327 | 3.2 | 4.8 | 0.00 | 0.00 | 0.00 | 23 | 1012.3 |
| 20260507001347 | 30 | 266 | 4.8 | 4.8 | 0.00 | 0.00 | 0.00 | 22 | 1012.3 |
| 20260507000843 | 31 | 324 | 6.4 | 9.7 | 0.00 | 0.00 | 0.00 | 21 | 1012.5 |
| 20260507000339 | 30 | 22 | 0.0 | 0.0 | 0.00 | 0.00 | 0.00 | 22 | 1012.4 |
| 20260506235835 | 29 | 12 | 1.6 | 1.6 | 0.00 | 0.00 | 0.00 | 22 | 1012.5 |
| 20260506235332 | 30 | 275 | 6.4 | 9.7 | 0.00 | 0.00 | 0.00 | 21 | 1012.4 |
| 20260506234828 | 30 | 10 | 0.0 | 0.0 | 0.00 | 0.00 | 0.00 | 21 | 1012.3 |
| 20260506234326 | 29 | 348 | 3.2 | 3.2 | 0.00 | 0.00 | 0.00 | 21 | 1012.4 |
| 20260506233824 | 29 | 8 | 1.6 | 3.2 | 0.00 | 0.00 | 0.00 | 22 | 1012.5 |
| 20260506233319 | 29 | 19 | 0.0 | 1.6 | 0.00 | 0.00 | 0.00 | 23 | 1012.4 |
| 20260506232817 | 29 | 334 | 1.6 | 3.2 | 0.00 | 0.00 | 0.00 | 22 | 1012.5 |
| 20260506232312 | 29 | 28 | 0.0 | 1.6 | 0.00 | 0.00 | 0.00 | 22 | 1012.5 |
| 20260506231809 | 29 | 334 | 1.6 | 1.6 | 0.00 | 0.00 | 0.00 | 22 | 1012.7 |
| 20260506231307 | 28 | 11 | 0.0 | 0.0 | 0.00 | 0.00 | 0.00 | 22 | 1012.5 |
| 20260506230804 | 29 | 307 | 1.6 | 3.2 | 0.00 | 0.00 | 0.00 | 23 | 1012.6 |
| 20260506230300 | 28 | 80 | 3.2 | 3.2 | 0.00 | 0.00 | 0.00 | 22 | 1012.7 |
| 20260506225757 | 29 | 304 | 1.6 | 3.2 | 0.00 | 0.00 | 0.00 | 22 | 1012.8 |
| 20260506225254 | 28 | 341 | 3.2 | 4.8 | 0.00 | 0.00 | 0.00 | 22 | 1012.9 |
| 20260506224750 | 29 | 13 | 0.0 | 0.0 | 0.00 | 0.00 | 0.00 | 22 | 1013.2 |
| 20260506224248 | 29 | 18 | 1.6 | 3.2 | 0.00 | 0.00 | 0.00 | 22 | 1013.3 |
| 20260506223744 | 29 | 337 | 3.2 | 3.2 | 0.00 | 0.00 | 0.00 | 22 | 1013.2 |
| 20260506223240 | 29 | 353 | 3.2 | 3.2 | 0.00 | 0.00 | 0.00 | 23 | 1013.3 |
| 20260506222737 | 28 | 7 | 1.6 | 3.2 | 0.00 | 0.00 | 0.00 | 22 | 1013.3 |
| 20260506222232 | 29 | 292 | 6.4 | 6.4 | 0.00 | 0.00 | 0.00 | 22 | 1013.4 |
| 20260506221731 | 28 | 284 | 3.2 | 3.2 | 0.00 | 0.00 | 0.00 | 23 | 1013.3 |
| 20260506221228 | 29 | 358 | 1.6 | 3.2 | 0.00 | 0.00 | 0.00 | 23 | 1013.5 |
| 20260506220725 | 28 | 14 | 3.2 | 3.2 | 0.00 | 0.00 | 0.00 | 23 | 1013.6 |
| 20260506220220 | 29 | 343 | 1.6 | 1.6 | 0.00 | 0.00 | 0.00 | 24 | 1013.6 |
| 20260506215717 | 29 | 357 | 1.6 | 1.6 | 0.00 | 0.00 | 0.00 | 24 | 1013.6 |
| 20260506215213 | 28 | 348 | 1.6 | 1.6 | 0.00 | 0.00 | 0.00 | 23 | 1013.7 |
| 20260506214709 | 28 | 289 | 3.2 | 4.8 | 0.00 | 0.00 | 0.00 | 24 | 1013.7 |
| 20260506214206 | 30 | 330 | 3.2 | 4.8 | 0.00 | 0.00 | 0.00 | 22 | 1013.8 |
| 20260506213705 | 30 | 8 | 0.0 | 0.0 | 0.00 | 0.00 | 0.00 | 23 | 1014.0 |
| 20260506213202 | 29 | 10 | 0.0 | 1.6 | 0.00 | 0.00 | 0.00 | 23 | 1014.0 |
| 20260506212659 | 28 | 269 | 4.8 | 4.8 | 0.00 | 0.00 | 0.00 | 23 | 1014.1 |
| 20260506212154 | 29 | 341 | 3.2 | 3.2 | 0.00 | 0.00 | 0.00 | 24 | 1014.1 |
| 20260506211650 | 30 | 28 | 1.6 | 1.6 | 0.00 | 0.00 | 0.00 | 24 | 1014.4 |
| 20260506211146 | 29 | 28 | 0.0 | 0.0 | 0.00 | 0.00 | 0.00 | 23 | 1014.3 |
| 20260506210643 | 30 | 33 | 1.6 | 1.6 | 0.00 | 0.00 | 0.00 | 24 | 1014.4 |
| 20260506210140 | 28 | 27 | 0.0 | 1.6 | 0.00 | 0.00 | 0.00 | 24 | 1014.3 |
| 20260506205637 | 27 | 310 | 1.6 | 3.2 | 0.00 | 0.00 | 0.00 | 25 | 1014.6 |
| 20260506205132 | 27 | 329 | 3.2 | 3.2 | 0.00 | 0.00 | 0.00 | 25 | 1014.6 |
| 20260506204630 | 27 | 38 | 1.6 | 1.6 | 0.00 | 0.00 | 0.00 | 24 | 1014.5 |
| 20260506204127 | 26 | 46 | 1.6 | 3.2 | 0.00 | 0.00 | 0.00 | 25 | 1014.8 |
| 20260506203625 | 27 | 243 | 3.2 | 4.8 | 0.00 | 0.00 | 0.00 | 25 | 1014.7 |
| 20260506203121 | 27 | 34 | 3.2 | 3.2 | 0.00 | 0.00 | 0.00 | 25 | 1014.9 |
| 20260506202619 | 27 | 26 | 0.0 | 1.6 | 0.00 | 0.00 | 0.00 | 25 | 1014.8 |
| 20260506202115 | 28 | 325 | 1.6 | 3.2 | 0.00 | 0.00 | 0.00 | 25 | 1014.7 |
| 20260506201613 | 27 | 285 | 6.4 | 9.7 | 0.00 | 0.00 | 0.00 | 24 | 1014.9 |
| 20260506201109 | 27 | 32 | 1.6 | 1.6 | 0.00 | 0.00 | 0.00 | 26 | 1014.7 |
| 20260506200606 | 27 | 43 | 1.6 | 3.2 | 0.00 | 0.00 | 0.00 | 24 | 1014.9 |
| 20260506195559 | 28 | 25 | 0.0 | 0.0 | 0.00 | 0.00 | 0.00 | 27 | 1015.0 |
| 20260506195055 | 27 | 38 | 0.0 | 0.0 | 0.00 | 0.00 | 0.00 | 25 | 1015.0 |
| 20260506194553 | 27 | 20 | 0.0 | 1.6 | 0.00 | 0.00 | 0.00 | 26 | 1015.3 |
| 20260506194049 | 27 | 1 | 1.6 | 3.2 | 0.00 | 0.00 | 0.00 | 26 | 1015.2 |